Маслово

Россия / Свердловская область     60°06′46″N   60°27′33″E
темп.,
°C
ветер,
м/с
пор.,
м/с
влажн.,
%
обл.,
%
осадки,
мм/ч
давл.,
гПа
погр.,
м
23 октября, сб
сб2323:00+7ююз41193100 1.1 989476
02:00+8зюз51287100 0.1 9891049
05:00+8зюз411805 0.1 990677
08:00+8зюз5137495 0.0 991905
11:00+8зюз5127968 0.3 9921243
14:00+6з5127563 0.3 9961417
17:00+5зюз51277100 0.5 9981360
20:00+5зюз5126698 0.1 10001353
24 октября, вс
вс2423:00+5зюз6136559 0.1 10011374
02:00+4зюз61273100 0.0 10031036
05:00+3зюз5117734 0.0 1005817
08:00+4зюз497616 0.0 1006708
11:00+5зюз376822 0.0 1007907
14:00+6юз356298 0.0 10061047
17:00+5ююв127494 0.0 100549
20:00+3ю2492100 0.0 1005133
25 октября, пн
пн2523:00+3юз1294100 1.1 1004382
02:00+2з2697100 3.4 1004368
05:00+3сз2593100 3.4 1006319
08:00+2ююз129497 0.0 100793
11:00+3зюз3779100 0.1 1008549
14:00+3з2492100 0.5 1008500
17:00−1с3887100 2.1 1010553
20:00−1зсз2580100 0.1 1011221
26 октября, вт
вт2623:00−4з26845 0.1 1012161
02:00−3з39775 0.0 1012308
05:00−3з410775 0.0 1013454
08:00−4з39751 0.0 1014321
11:00−1зсз49615 0.0 1015999
14:000зсз47482 0.0 10161415
17:00−2з49632 0.0 1017497
20:00−4зюз39756 0.0 1018306
27 октября, ср
ср2723:00−4юз268174 0.0 1019132
02:00−5ююз258585 0.0 1019107
05:00−5ю248581 0.0 1018105
08:00−5ю279470 0.0 1017210
11:00−1ююз4780100 0.0 1016474
14:00+1ю4877100 0.0 1014684
17:00+1ююз41079100 0.3 1012618
20:000ююз4981100 0.0 1011446